User: anonymous   Login
Location: Unspecified
(0.0000°N, 0.0000°E)
Time: 17:00:59
(UTC+00:00)
Language:

Geos 2 (Explorer 36) - Orbit

View from above orbital plane
View from above orbital plane
View from above satellite
View from above satellite

Ground track
Ground track

The orbit data is extracted from the following two-line orbital elements,

1 03093U 68002A   17265.11691030 -.00000070  00000-0  22243-4 0  9998
2 03093 105.8074 269.5364 0319460 243.3016 155.8754 12.83529066328458
Epoch (UTC): 22 September 2017 02:48:21
Eccentricity: 0.0319460
inclination: 105.8074°
perigee height: 1081 km
apogee height: 1573 km
right ascension of ascending node: 269.5364°
argument of perigee: 243.3016°
revolutions per day: 12.83529066
mean anomaly at epoch: 155.8754°
orbit number at epoch: 32845

The dashed part of the orbit path shows where the satellite is in the earth's shadow,  

DLR